Wind_Speed
39 39 40 40 39 39 39 38 36 35 34 32 31 30 29 29 28 28 27 26 25 24 24 22 21 21 21 21 23 23 24 24 23 23 23 23 21 20 19 18 17 18 17
41 41 42 42 41 41 42 41 40 38 36 35 34 33 32 32 30 28 28 29 29 27 25 24 23 23 22 22 23 25 26 26 26 25 25 24 24 23 22 20 19 19 20
42 42 42 42 43 43 43 43 42 41 39 38 37 36 35 35 34 32 32 31 31 29 28 26 25 24 23 23 22 25 27 27 27 28 27 27 27 25 24 23 21 21 22
40 41 40 40 41 42 44 44 43 42 41 40 39 38 38 36 36 35 35 33 32 32 31 29 27 25 24 24 24 24 26 27 27 28 29 29 28 27 26 25 24 23 23
39 40 39 39 38 37 38 39 40 40 40 39 39 38 38 37 37 37 35 33 33 32 31 31 29 28 26 26 26 26 26 27 28 29 30 30 30 30 28 28 27 26 25
35 36 37 36 34 33 32 33 35 35 37 38 38 37 37 36 36 36 35 34 34 33 30 29 28 28 28 28 28 26 26 27 27 29 30 31 30 30 29 29 29 27 27
31 31 31 30 29 29 29 29 31 32 33 34 35 35 35 35 35 34 34 33 32 32 31 30 30 30 30 29 29 29 29 29 28 28 29 31 31 32 30 29 28 28 27
23 23 23 24 25 25 25 26 27 29 30 31 32 32 32 33 32 31 31 31 31 31 31 30 30 29 29 29 30 30 30 30 30 29 30 30 30 31 30 29 28 27 26
15 15 16 17 18 20 21 23 24 25 27 28 29 29 29 29 30 30 30 30 31 30 31 30 30 29 29 30 29 30 31 31 30 29 29 29 29 30 29 28 27 26 25
12 11 10 11 12 14 16 18 20 22 24 26 27 27 27 28 28 29 29 29 30 29 29 29 28 29 28 26 27 28 27 27 26 26 26 26 27 27 26 25 25 24 24
13 9 7 7 8 9 11 13 15 17 18 20 22 23 23 24 24 25 26 26 25 25 24 24 25 24 24 23 23 24 24 25 25 24 25 25 26 25 24 23 23 23 23
12 10 9 7 6 6 6 7 8 10 12 14 15 17 18 19 20 20 19 19 19 19 19 19 20 20 20 20 21 21 22 23 24 24 23 23 23 22 22 22 22 22 22
15 13 13 10 7 6 5 3 3 4 5 6 8 10 10 11 12 12 12 12 12 13 14 14 14 14 14 15 16 17 17 18 19 19 19 19 19 20 21 22 22 23 22
18 17 15 14 12 10 9 8 7 5 4 3 1 1 1 3 3 4 5 5 6 7 8 8 9 9 10 11 13 14 14 15 16 17 18 18 19 20 21 21 22 23 23
18 18 18 17 16 16 15 14 13 12 11 10 8 6 5 4 3 2 2 3 4 4 6 7 8 9 11 12 13 15 16 16 16 17 18 18 19 20 21 21 22 22 22
19 19 18 17 16 15 14 14 14 14 13 12 10 9 8 7 7 5 4 4 5 6 7 9 10 12 13 14 15 16 17 18 18 19 19 19 19 20 21 21 21 21 21
18 19 19 19 19 18 17 16 16 15 14 13 12 11 10 9 8 8 7 7 7 8 8 9 11 13 14 15 17 18 19 20 20 20 20 20 20 20 20 19 20 19 19
18 18 18 18 19 19 19 18 18 17 17 16 15 14 12 11 11 10 10 10 10 10 11 11 12 14 15 16 17 18 19 20 20 20 20 20 20 19 19 19 18 18 18
18 18 18 18 18 18 19 19 18 18 18 18 17 17 16 15 14 13 12 12 11 11 11 12 13 14 15 16 16 17 17 18 19 19 19 19 19 18 18 17 17 17 17
19 19 19 19 19 19 19 19 19 19 19 18 18 17 17 17 17 16 15 14 13 12 12 12 13 13 14 15 15 16 16 16 16 17 17 17 17 17 16 16 15 15 15
19 19 20 20 19 19 19 19 19 19 18 18 18 18 18 18 18 17 17 16 16 15 14 13 13 12 12 12 12 12 13 13 13 13 14 14 14 14 14 13 13 13 12
18 18 19 19 19 18 18 18 18 18 18 18 19 19 18 18 19 19 18 18 17 17 16 15 14 12 11 11 9 8 8 8 9 10 10 10 11 11 10 10 10 10 9
17 17 17 17 18 18 18 17 17 18 18 18 19 19 19 19 19 20 20 19 19 18 17 16 15 14 13 11 8 6 4 3 3 4 5 6 6 7 7 7 7 7 8
16 16 16 17 17 17 17 17 17 17 18 18 18 19 20 20 20 21 21 20 20 19 18 18 17 16 15 13 11 8 6 5 3 2 2 2 3 3 3 4 4 4 5
15 15 15 15 15 15 16 16 16 17 17 17 18 19 20 20 21 21 22 22 21 20 20 19 19 18 18 16 15 13 11 10 9 7 6 5 4 3 3 2 1 1 1
12 12 13 13 14 14 15 15 16 16 17 17 18 19 19 20 20 21 22 22 23 22 21 21 20 20 19 18 18 17 15 14 13 12 11 10 9 8 7 6 5 5 4
Wind_Direction
273 272 270 268 267 265 265 264 263 262 261 260 258 259 262 262 266 268 269 268 268 269 267 267 265 265 265 263 262 262 264 266 269 269 268 268 268 268 271 274 276 279 282
272 270 269 268 266 264 263 262 262 260 259 258 258 259 262 262 263 267 269 267 267 266 263 264 265 264 264 265 264 261 261 265 266 264 264 265 266 266 267 268 269 273 279
272 269 267 265 263 261 260 260 259 258 256 257 257 258 260 262 263 265 265 267 266 264 261 262 263 262 262 265 267 264 262 265 265 262 259 261 262 261 263 266 267 268 273
271 267 265 264 262 260 258 258 257 256 256 255 255 256 258 259 262 263 264 265 267 266 264 262 261 262 263 264 268 268 267 263 263 261 257 257 259 259 260 264 267 268 270
272 268 265 264 263 259 257 255 254 254 254 254 254 255 257 259 261 262 265 266 268 267 268 268 263 265 265 265 271 270 269 267 264 262 257 254 255 257 258 262 264 267 269
274 269 267 265 261 258 258 253 251 251 253 253 253 254 256 258 260 262 265 266 268 269 268 269 268 270 271 270 271 269 268 267 265 262 257 252 252 253 254 257 261 264 268
278 275 271 268 265 260 258 253 251 251 253 253 253 254 256 258 260 262 263 266 268 269 271 273 272 271 268 270 270 270 267 266 263 258 254 251 251 250 251 253 258 262 265
289 283 278 272 267 265 260 255 253 252 252 253 253 255 257 259 261 262 264 266 268 270 272 272 272 271 270 269 270 268 265 263 259 255 253 251 250 249 249 251 255 258 261
309 297 286 277 268 263 261 257 254 253 253 254 255 256 257 258 260 263 265 267 268 269 271 270 269 268 268 267 267 264 261 257 255 254 251 249 250 248 246 248 253 256 258
331 319 304 290 280 272 265 262 259 259 258 257 257 258 258 259 260 263 265 266 268 268 266 267 268 266 265 265 264 262 258 257 255 253 251 250 248 244 244 248 251 253 257
354 347 330 318 307 289 275 268 266 265 264 261 258 259 261 263 265 267 268 267 266 266 266 266 267 265 264 263 261 256 254 255 252 249 248 247 244 242 243 249 253 256 258
20 17 14 5 343 323 299 277 271 268 264 259 259 260 263 265 267 268 267 265 262 263 263 263 263 264 263 260 255 251 249 251 249 249 248 247 246 246 249 253 256 258 260
39 37 36 35 33 25 8 344 305 289 277 264 258 259 263 266 266 266 267 263 262 261 258 259 260 259 257 255 256 254 253 253 253 252 250 250 250 252 253 255 257 260 261
47 49 48 49 52 51 54 55 53 55 60 59 68 60 290 274 266 270 270 265 261 258 257 256 256 253 253 253 257 257 257 258 256 255 255 255 254 255 256 257 259 261 262
48 50 54 55 55 58 63 66 67 69 73 73 70 64 61 54 44 21 334 311 296 283 277 264 261 260 257 259 261 262 264 264 262 261 261 260 259 259 259 259 260 261 262
53 53 56 59 60 62 63 66 67 67 66 65 65 62 59 51 41 30 11 342 311 294 287 277 273 270 268 267 267 267 267 267 266 265 263 262 261 262 262 261 261 261 263
54 54 58 60 62 64 67 70 66 64 63 63 61 55 48 40 30 18 2 345 327 313 301 291 285 280 277 274 273 271 270 268 267 266 265 263 264 264 263 263 263 263 264
57 59 60 61 63 64 64 63 62 61 60 56 53 49 42 34 24 13 1 349 336 325 314 306 297 290 287 284 280 276 271 268 266 264 263 262 262 263 264 264 264 264 265
60 62 62 63 62 61 62 62 60 58 55 52 50 47 42 36 30 21 12 2 352 340 328 318 309 301 295 291 287 280 274 269 264 261 260 260 261 263 263 263 263 264 265
60 62 63 63 63 62 62 60 58 56 54 52 48 44 41 37 32 27 20 13 6 356 344 333 322 314 306 300 293 285 278 271 265 261 259 258 258 260 260 261 261 261 264
63 64 63 63 62 61 60 58 56 54 51 48 45 42 38 35 32 28 23 19 14 7 359 350 341 332 322 314 304 293 282 272 266 262 259 256 255 256 257 257 258 257 260
64 64 63 62 60 59 57 55 52 50 47 44 42 39 36 34 31 28 25 21 17 13 9 4 359 352 343 335 326 312 296 277 265 259 255 252 251 252 250 250 252 253 254
62 62 61 59 56 55 53 49 47 45 43 40 38 36 33 31 29 27 24 22 20 18 17 15 13 11 7 3 359 354 344 321 279 257 246 242 236 236 238 243 247 248 251
59 59 58 55 52 49 47 44 43 41 40 37 34 32 31 29 28 27 26 25 24 23 23 24 24 25 27 30 33 37 44 55 71 96 139 171 183 201 216 230 240 247 251
55 53 52 50 48 46 43 41 40 39 38 36 34 32 30 29 28 28 29 29 29 30 32 33 35 36 40 44 49 55 61 67 74 81 91 104 107 112 121 126 137 189 219
48 46 44 43 42 41 41 39 37 36 35 34 33 32 30 30 30 31 32 33 34 36 38 40 41 43 46 51 55 60 64 68 72 76 79 82 85 90 90 84 83 83 84
Height
5868 5868 5867 5867 5867 5866 5867 5868 5869 5870 5871 5872 5874 5874 5875 5876 5876 5876 5876 5876 5877 5877 5876 5876 5876 5876 5876 5877 5877 5878 5878 5879 5879 5879 5879 5880 5880 5881 5881 5881 5881 5881 5881
5857 5857 5856 5856 5856 5856 5856 5857 5858 5860 5861 5863 5865 5866 5867 5867 5868 5868 5868 5869 5869 5870 5870 5869 5870 5870 5870 5870 5871 5871 5872 5873 5873 5873 5874 5875 5876 5876 5876 5877 5877 5877 5876
5845 5844 5844 5844 5844 5844 5844 5845 5847 5849 5851 5853 5856 5857 5858 5859 5859 5859 5860 5860 5861 5862 5862 5862 5863 5863 5864 5864 5864 5865 5865 5866 5866 5867 5868 5869 5869 5870 5871 5871 5872 5873 5873
5832 5832 5831 5832 5832 5833 5833 5834 5836 5838 5840 5843 5845 5848 5849 5850 5851 5851 5851 5852 5852 5853 5854 5854 5855 5856 5856 5856 5857 5857 5858 5858 5859 5859 5861 5862 5863 5864 5865 5866 5866 5867 5867
5821 5820 5820 5820 5820 5820 5821 5823 5825 5827 5830 5832 5835 5837 5840 5842 5842 5843 5843 5843 5844 5844 5845 5846 5847 5848 5848 5848 5849 5849 5850 5851 5851 5852 5853 5854 5856 5857 5858 5859 5860 5860 5861
5810 5809 5808 5809 5809 5810 5811 5813 5816 5818 5820 5822 5825 5828 5830 5832 5834 5835 5836 5836 5836 5836 5837 5838 5838 5839 5839 5840 5841 5841 5842 5843 5843 5844 5845 5847 5848 5850 5851 5852 5853 5853 5854
5801 5799 5799 5799 5800 5802 5803 5805 5808 5810 5812 5814 5816 5819 5822 5824 5825 5827 5827 5828 5828 5828 5829 5829 5830 5831 5831 5831 5832 5833 5833 5835 5836 5837 5838 5839 5840 5842 5844 5845 5845 5847 5848
5794 5792 5791 5792 5793 5795 5796 5798 5800 5802 5804 5806 5809 5811 5813 5815 5817 5819 5820 5820 5820 5821 5821 5821 5822 5822 5822 5823 5823 5824 5825 5826 5827 5828 5829 5830 5832 5834 5835 5837 5839 5840 5841
5789 5787 5786 5787 5787 5789 5790 5792 5793 5795 5797 5799 5802 5804 5806 5808 5810 5811 5812 5812 5813 5813 5813 5813 5814 5814 5814 5815 5815 5815 5816 5817 5818 5820 5821 5822 5824 5826 5828 5830 5832 5833 5834
5786 5784 5783 5783 5783 5784 5785 5786 5788 5789 5791 5793 5795 5797 5799 5801 5802 5804 5804 5804 5805 5805 5806 5805 5806 5806 5807 5807 5807 5808 5808 5809 5810 5812 5813 5814 5816 5818 5820 5822 5824 5825 5827
5787 5784 5783 5782 5781 5781 5782 5783 5784 5785 5787 5789 5790 5792 5793 5794 5795 5796 5797 5797 5797 5798 5798 5799 5799 5800 5800 5800 5801 5801 5802 5803 5804 5805 5806 5807 5809 5811 5813 5815 5817 5818 5820
5788 5785 5783 5782 5781 5781 5781 5781 5782 5783 5784 5785 5786 5788 5789 5790 5790 5791 5791 5791 5791 5792 5792 5793 5793 5794 5794 5794 5794 5794 5795 5796 5797 5798 5800 5801 5803 5805 5807 5808 5810 5812 5813
5791 5788 5786 5784 5783 5782 5781 5781 5781 5782 5783 5783 5784 5785 5786 5786 5787 5787 5787 5787 5787 5787 5788 5788 5788 5789 5789 5789 5789 5790 5790 5791 5792 5793 5794 5795 5797 5799 5800 5802 5804 5805 5806
5795 5792 5790 5787 5785 5784 5783 5783 5783 5782 5783 5783 5784 5785 5785 5785 5785 5785 5785 5785 5785 5785 5785 5785 5785 5785 5785 5785 5785 5786 5787 5787 5788 5788 5789 5790 5792 5793 5795 5796 5797 5798 5799
5800 5797 5794 5792 5790 5789 5788 5787 5786 5786 5785 5785 5786 5786 5786 5786 5785 5785 5785 5784 5784 5783 5783 5782 5782 5782 5782 5782 5782 5782 5782 5782 5783 5784 5784 5785 5786 5787 5789 5790 5791 5792 5793
5805 5802 5799 5797 5795 5794 5793 5792 5790 5790 5789 5789 5788 5788 5787 5787 5786 5785 5784 5784 5783 5782 5781 5781 5780 5780 5779 5778 5778 5778 5778 5778 5778 5779 5779 5780 5781 5782 5783 5784 5785 5786 5787
5809 5807 5805 5803 5801 5799 5797 5796 5795 5794 5793 5792 5791 5790 5789 5788 5787 5785 5784 5783 5781 5780 5779 5778 5777 5776 5775 5774 5773 5773 5773 5773 5773 5773 5773 5774 5775 5776 5777 5778 5779 5780 5781
5814 5812 5810 5808 5806 5804 5802 5800 5799 5797 5796 5795 5794 5792 5791 5789 5788 5786 5784 5782 5780 5778 5776 5775 5773 5772 5770 5769 5768 5767 5767 5767 5767 5767 5768 5769 5770 5771 5772 5773 5774 5775 5776
5819 5816 5814 5812 5810 5808 5806 5805 5803 5801 5800 5798 5796 5795 5793 5791 5788 5786 5783 5781 5778 5776 5774 5772 5770 5768 5766 5764 5763 5762 5761 5761 5761 5761 5762 5763 5765 5766 5767 5768 5769 5770 5771
5823 5821 5818 5816 5815 5813 5811 5809 5807 5805 5803 5801 5799 5797 5795 5792 5790 5787 5784 5781 5778 5775 5772 5770 5767 5764 5762 5760 5758 5757 5756 5755 5755 5756 5757 5758 5760 5761 5763 5764 5765 5766 5767
5827 5825 5823 5821 5819 5817 5816 5813 5811 5809 5807 5805 5803 5800 5797 5794 5792 5788 5785 5781 5778 5775 5771 5768 5764 5761 5759 5756 5754 5752 5751 5751 5751 5752 5753 5754 5755 5757 5759 5760 5761 5762 5763
5832 5830 5828 5826 5824 5822 5820 5818 5816 5813 5811 5808 5806 5803 5800 5797 5794 5790 5786 5782 5779 5775 5771 5767 5763 5760 5756 5754 5751 5749 5748 5747 5748 5748 5749 5751 5752 5754 5755 5757 5758 5759 5760
5836 5834 5832 5830 5828 5826 5824 5822 5819 5817 5814 5811 5809 5806 5802 5799 5795 5792 5788 5783 5779 5775 5771 5767 5763 5759 5756 5752 5750 5748 5747 5746 5746 5747 5748 5749 5750 5752 5753 5755 5756 5757 5758
5840 5838 5836 5834 5832 5830 5828 5825 5823 5820 5817 5814 5811 5808 5805 5801 5798 5794 5790 5785 5781 5777 5772 5768 5764 5760 5756 5753 5750 5749 5747 5747 5747 5747 5748 5749 5750 5751 5752 5753 5754 5755 5756
5843 5841 5839 5837 5835 5833 5831 5828 5826 5823 5820 5817 5814 5811 5807 5804 5800 5796 5792 5787 5783 5779 5775 5771 5767 5763 5759 5756 5753 5751 5750 5749 5749 5749 5749 5750 5751 5752 5753 5753 5754 5754 5755
5846 5844 5842 5840 5838 5836 5834 5831 5829 5826 5823 5820 5817 5814 5810 5806 5803 5799 5795 5791 5786 5782 5778 5774 5770 5767 5763 5760 5758 5756 5755 5754 5753 5753 5753 5753 5753 5753 5754 5754 5755 5755 5755